Tracking 19489 objects as of 22-Jan-2019
HD Live streaming from Space Station
objects crossing your sky now

XCUBESAT

Track XCUBESAT now!
10-day predictions
XCUBESAT is classified as:


NORAD ID: 42707
Int'l Code: 1998-067LQ
Perigee: 260.6 km
Apogee: 266.6 km
Inclination: 51.6 °
Period: 89.6 minutes
Semi major axis: 6634 km
RCS: Unknown
Launch date: November 20, 1998
Source: France (FR)
Launch site: TYURATAM MISSILE AND SPACE COMPLEX (TTMTR)

Uplink (MHz): 145.860
Downlink (MHz): 437.020
Beacon (MHz):
Mode: 1200bps AFSK FM
Call sign: ON01FR
Status: Active

aabbcc
Your satellite tracking list
Your tracking list is empty




NASA's NSSDC Master Catalog

Two Line Element Set (TLE):
1 42707U 98067LQ  19022.21411144  .00345594  66768-4  44851-3 0  9994
2 42707  51.6194 295.5573 0004500 174.0697 186.0370 16.06491175 96603
Source of the keplerian elements: AMSAT